N1DNE Weather Reports


Display with metric or nautical units.
time (UTC)temp
F
wind
direction
speed
MPH
gust
MPH
rain 1hr
in
rain 24hr
in
rain mn
in
humidity
%
barometer
mb
20260901231210 62 49 0.0 1.0 0.01 0.24 0.24 96 1016.3
20260901230647 62 51 0.0 3.0 0.01 0.24 0.24 96 1015.9
20260901225203 62 49 0.0 1.0 0.01 0.24 0.24 96 1015.9
20260901224204 62 49 0.0 3.0 0.02 0.24 0.24 96 1015.9
20260901223645 62 5 0.0 1.0 0.02 0.24 0.24 96 1015.7
20260901222203 62 5 0.0 4.0 0.02 0.23 0.23 96 1016.0
20260901222123 63 28 0.0 7.0 0.03 0.23 0.23 96 1015.7
20260901220204 63 59 1.0 4.0 0.03 0.23 0.23 96 1015.6
20260901215203 63 28 1.0 3.0 0.03 0.23 0.23 96 1015.5
20260901214203 63 38 0.0 4.0 0.03 0.22 0.22 96 1015.5
20260901213204 64 48 0.0 3.0 0.04 0.22 0.22 96 1015.5
20260901212205 64 25 0.0 3.0 0.04 0.21 0.21 96 1015.2
20260901211203 64 32 0.0 3.0 0.04 0.20 0.20 96 1015.2
20260901210643 64 32 1.0 3.0 0.04 0.20 0.20 95 1015.0
20260901205205 64 44 1.0 8.0 0.04 0.20 0.20 95 1014.9
20260901204647 65 66 1.0 4.0 0.04 0.19 0.19 95 1014.7
20260901203202 65 48 2.0 6.0 0.06 0.18 0.18 95 1014.6
20260901202154 66 66 0.0 3.0 0.06 0.17 0.18 95 1014.5
20260901201154 66 49 1.0 4.0 0.05 0.16 0.16 95 1014.3
20260901200157 67 355 0.0 4.0 0.05 0.16 0.16 95 1014.1
20260901195158 68 36 1.0 6.0 0.05 0.16 0.16 95 1014.0
20260901194155 69 30 1.0 5.0 0.05 0.15 0.15 95 1013.8
20260901193155 70 54 1.0 4.0 0.02 0.12 0.12 96 1013.7
20260901192654 70 190 0.0 3.0 0.01 0.11 0.11 96 1013.5
20260901191156 71 190 1.0 3.0 0.01 0.11 0.11 96 1013.4
20260901190155 71 190 0.0 0.0 0.02 0.11 0.11 96 1013.3
20260901185152 71 190 0.0 0.0 0.02 0.11 0.11 96 1013.3
20260901184154 71 190 0.0 0.0 0.01 0.10 0.10 96 1013.3
20260901183642 71 190 0.0 0.0 0.01 0.10 0.10 96 1013.3
20260901182154 71 190 0.0 0.0 0.01 0.10 0.10 96 1013.3
20260901181634 71 190 0.0 1.0 0.01 0.10 0.10 96 1013.4
20260901180150 71 190 0.0 1.0 0.00 0.09 0.09 96 1013.3
20260901175151 71 190 0.0 2.0 0.00 0.09 0.09 96 1013.4
20260901174151 71 190 0.0 0.0 0.00 0.09 0.09 96 1013.5
20260901173145 71 190 0.0 0.0 0.00 0.09 0.09 96 1013.5
20260901172623 71 190 0.0 0.0 0.00 0.09 0.09 96 1013.6
20260901171146 71 190 0.0 0.0 0.00 0.09 0.09 96 1013.5
20260901170144 71 190 0.0 0.0 0.00 0.09 0.09 96 1013.5
20260901165145 71 190 0.0 0.0 0.00 0.09 0.09 96 1013.3
20260901164630 71 190 0.0 0.0 0.00 0.09 0.09 96 1013.5
20260901163146 71 190 0.0 0.0 0.00 0.09 0.09 96 1013.6
20260901162145 71 190 0.0 0.0 0.00 0.09 0.09 96 1013.6
20260901161145 71 190 0.0 0.0 0.00 0.09 0.09 96 1013.7
20260901160142 71 190 0.0 1.0 0.00 0.09 0.09 96 1013.9
20260901155144 70 190 0.0 3.0 0.00 0.09 0.09 96 1013.7
20260901154639 70 190 0.0 2.0 0.00 0.09 0.09 96 1013.8
20260901153143 70 190 0.0 1.0 0.00 0.09 0.09 96 1013.8
20260901152144 70 190 0.0 1.0 0.00 0.09 0.09 96 1014.1
20260901151143 70 190 0.0 1.0 0.00 0.09 0.09 96 1014.1
20260901150142 70 190 0.0 2.0 0.00 0.09 0.09 96 1014.2
20260901145141 70 190 0.0 0.0 0.00 0.09 0.09 96 1014.0
20260901144140 70 190 0.0 1.0 0.00 0.09 0.09 96 1014.2
20260901143139 70 190 0.0 1.0 0.00 0.09 0.09 96 1014.2
20260901142140 70 190 0.0 1.0 0.00 0.09 0.09 96 1014.4
20260901141622 69 190 0.0 0.0 0.00 0.09 0.09 96 1014.4
20260901140140 69 190 0.0 0.0 0.00 0.09 0.09 96 1014.4
20260901135140 69 190 0.0 0.0 0.02 0.09 0.09 96 1014.4
20260901134141 69 190 0.0 1.0 0.02 0.09 0.09 96 1014.4
20260901133140 69 190 0.0 0.0 0.03 0.09 0.09 96 1014.4
20260901132617 69 190 0.0 1.0 0.05 0.09 0.09 96 1014.5
20260901131135 69 190 0.0 2.0 0.08 0.09 0.09 96 1014.5
20260901130607 69 190 0.0 2.0 0.08 0.09 0.09 96 1014.5
20260901125134 69 190 0.0 1.0 0.06 0.07 0.07 96 1014.6
20260901124135 69 190 0.0 1.0 0.07 0.07 0.07 96 1014.8
20260901123133 69 190 0.0 0.0 0.06 0.06 0.06 96 1014.8
20260901123101 69 190 0.0 0.0 0.04 0.04 0.05 96 1014.7
20260901121133 68 190 0.0 1.0 0.01 0.01 0.01 96 1014.7
20260901120135 68 190 0.0 1.0 0.01 0.01 0.01 96 1014.7
20260901115609 68 190 0.0 0.0 0.01 0.01 0.01 96 1014.6
20260901114620 68 190 0.0 1.0 0.00 0.00 0.00 96 1014.4
20260901113128 68 190 0.0 1.0 0.00 0.00 0.00 96 1014.5
20260901112129 68 190 0.0 1.0 0.00 0.00 0.00 95 1014.4
20260901111130 68 190 0.0 1.0 0.00 0.00 0.00 95 1014.3
20260901110619 68 190 0.0 3.0 0.00 0.00 0.00 95 1014.2
20260901105130 68 190 0.0 1.0 0.00 0.00 0.00 95 1014.3
20260901105105 68 190 0.0 1.0 0.00 0.00 0.00 95 1014.3
20260901103125 68 190 0.0 0.0 0.00 0.00 0.00 95 1014.3
20260901102124 68 190 0.0 1.0 0.00 0.00 0.00 95 1014.2
20260901101125 68 190 0.0 1.0 0.00 0.00 0.00 95 1014.2
20260901100125 68 190 0.0 0.0 0.00 0.00 0.00 95 1014.3
20260901095125 68 190 0.0 0.0 0.00 0.00 0.00 95 1014.3
20260901094121 68 190 0.0 0.0 0.00 0.00 0.00 95 1014.4
20260901094048 68 190 0.0 0.0 0.00 0.00 0.00 95 1014.3
20260901092120 68 190 0.0 0.0 0.00 0.00 0.00 95 1014.4
20260901091120 68 190 0.0 0.0 0.00 0.00 0.00 95 1014.5
20260901090121 68 190 0.0 0.0 0.00 0.00 0.00 95 1014.5
20260901085119 68 190 0.0 0.0 0.00 0.00 0.00 95 1014.7
20260901084119 68 190 0.0 0.0 0.00 0.00 0.00 95 1014.8
20260901083117 68 190 0.0 0.0 0.00 0.00 0.00 95 1014.8
20260901082117 68 190 0.0 0.0 0.00 0.00 0.00 94 1014.8
20260901081117 68 190 0.0 0.0 0.00 0.00 0.00 94 1014.9
20260901080119 68 190 0.0 0.0 0.00 0.00 0.00 94 1015.0
20260901075120 68 190 0.0 0.0 0.00 0.00 0.00 94 1015.1
20260901074113 68 190 0.0 0.0 0.00 0.00 0.00 94 1015.2
20260901073551 68 190 0.0 0.0 0.00 0.00 0.00 94 1015.2
20260901072112 68 190 0.0 0.0 0.00 0.00 0.00 94 1015.3
20260901071112 68 190 0.0 0.0 0.00 0.00 0.00 94 1015.4
20260901070112 68 190 0.0 0.0 0.00 0.00 0.00 94 1015.5
20260901065111 68 190 0.0 0.0 0.00 0.00 0.00 94 1015.4
20260901064113 68 190 0.0 0.0 0.00 0.00 0.00 94 1015.4
20260901063555 68 190 0.0 0.0 0.00 0.00 0.00 94 1015.5
20260901062555 68 190 0.0 0.0 0.00 0.00 0.00 94 1015.6
20260901061552 68 190 0.0 0.0 0.00 0.00 0.00 93 1015.6
20260901060107 68 190 0.0 0.0 0.00 0.00 0.00 93 1015.7
20260901055106 68 190 0.0 0.0 0.00 0.00 0.00 93 1015.7
20260901054105 68 190 0.0 0.0 0.00 0.00 0.00 92 1016.0
20260901053107 68 190 0.0 0.0 0.00 0.00 0.00 92 1016.0
20260901052105 68 190 0.0 0.0 0.00 0.00 0.00 92 1016.0
20260901051107 69 190 0.0 0.0 0.00 0.00 0.00 92 1016.1
20260901050107 69 190 0.0 0.0 0.00 0.00 0.00 91 1016.2
20260901045106 69 190 0.0 0.0 0.00 0.00 0.00 91 1016.3
20260901044101 69 190 0.0 0.0 0.00 0.00 0.00 91 1016.3
20260901043100 69 190 0.0 0.0 0.00 0.00 0.00 90 1016.3
20260901042101 69 190 0.0 0.0 0.00 0.00 0.00 89 1016.4
20260901041100 69 190 0.0 0.0 0.00 0.00 0.00 89 1016.3
20260901040059 69 190 0.0 0.0 0.00 0.00 0.00 89 1016.5
20260901035539 69 190 0.0 0.0 0.00 0.00 0.00 89 1016.4
20260901034101 69 190 0.0 0.0 0.00 0.00 0.00 89 1016.4
20260901033057 69 190 0.0 0.0 0.00 0.00 0.00 88 1016.6
20260901032058 69 190 0.0 0.0 0.00 0.00 0.00 87 1016.5
20260901031053 69 190 0.0 0.0 0.00 0.00 0.00 87 1016.5
20260901030054 69 190 0.0 0.0 0.00 0.00 0.00 87 1016.5
20260901025053 69 190 0.0 0.0 0.00 0.00 0.00 86 1016.6
20260901024054 69 190 0.0 0.0 0.00 0.00 0.00 87 1016.7
20260901023053 69 190 0.0 0.0 0.00 0.00 0.00 86 1016.8
20260901022538 69 190 0.0 1.0 0.00 0.00 0.00 85 1016.7
20260901021054 70 190 0.0 0.0 0.00 0.00 0.00 85 1016.5
20260901020053 70 190 0.0 0.0 0.00 0.00 0.00 84 1016.6
20260901015526 70 190 0.0 0.0 0.00 0.00 0.00 84 1016.6
20260901014052 70 190 0.0 0.0 0.00 0.00 0.00 84 1016.5
20260901013053 70 190 0.0 0.0 0.00 0.00 0.00 83 1016.7
20260901012051 70 190 0.0 0.0 0.00 0.00 0.00 83 1016.8
20260901011052 70 190 0.0 0.0 0.00 0.00 0.00 82 1017.0
20260901010052 71 190 0.0 0.0 0.00 0.00 0.00 82 1016.9
20260901005051 71 190 0.0 1.0 0.00 0.00 0.00 82 1016.8
20260901004051 71 190 0.0 1.0 0.00 0.00 0.00 82 1016.8
20260901003052 71 190 0.0 2.0 0.00 0.00 0.00 82 1016.8
20260901002049 71 190 0.0 2.0 0.00 0.00 0.00 82 1016.7
20260901001050 71 190 0.0 1.0 0.00 0.00 0.00 83 1016.6
20260901000049 71 190 0.0 2.0 0.00 0.00 0.00 83 1016.6
20260831235049 71 190 0.0 1.0 0.00 0.00 0.00 82 1016.7
20260831234050 71 190 0.0 3.0 0.00 0.00 0.00 82 1016.6
20260831233050 71 190 0.0 1.0 0.00 0.00 0.00 80 1016.6
20260831232051 72 190 0.0 1.0 0.00 0.00 0.00 78 1016.8